Location: Beekmeers
(50.8953°N, 3.6968°E)
Time: 02:52:57
(UTC+00:00)

Cosmos 841 Rocket - Pass Details

Date: 23 May 2024
Orbit: 744 x 770 km, 74.0° (Epoch: 21 June)

Event Time Altitude Azimuth Distance (km) Brightness Sun altitude
Rises 02:05:41 0° 328° (NNW) 3,233 7.1 -11.8°
Reaches altitude 10° 02:08:18 10° 318° (NW) 2,307 6.2 -11.6°
Maximum altitude 02:12:46 29° 259° (W) 1,369 4.4 -11.1°
Enters shadow 02:16:25 14° 206° (SSW) 2,043 5.1 -10.8°
